Regional Weather Roundup
Issued by NWS

Home | Current Version | Previous Version | Graphics & Text | Print | Product List | Glossary On
Versions: 1 2 3 4 5 6 7 8 9 10 11 12 13 14 15 16 17 18 19 20 21 22 23 24 25 26 27 28 29 30 31 32 33 34 35 36 37 38 39 40 41 42 43 44 45 46 47 48 49 50
000
ASUS43 KLOT 281510
RWRIL

ILLINOIS REGIONAL WEATHER ROUNDUP
NATIONAL WEATHER SERVICE CHICAGO/ROMEOVILLE IL
900 AM CST SUN DEC 28 2014

NOTE: "FAIR" INDICATES FEW OR NO CLOUDS BELOW 12,000 FEET WITH NO
SIGNIFICANT WEATHER AND/OR OBSTRUCTIONS TO VISIBILITY.

* THESE STATIONS ARE NOT UNDER NWS QUALITY CONTROL. THEY ALSO MAY NOT
  REPORT WEATHER SUCH AS PRECIPITATION OR FOG.

ILZ001-002-007-009-015-016-024-281600-
NORTHWEST ILLINOIS

CITY           SKY/WX    TMP DP  RH WIND       PRES   REMARKS
MOLINE         SUNNY     20  16  84 SW5       30.22R WCI  13
STERLING*      MOSUNNY   19  16  86 W7        30.20R WCI  10
SAVANNA*       SUNNY     22  17  82 W3        30.21R
$$

ILZ003-004-008-010-011-017-018-281600-
NORTH CENTRAL ILLINOIS

CITY           SKY/WX    TMP DP  RH WIND       PRES   REMARKS
ROCKFORD       MOSUNNY   21  15  78 W6        30.20R WCI  13
FREEPORT*      SUNNY     19  16  86 W6        30.19S WCI  11
ROCHELLE*      MOSUNNY   19  16  88 W7        30.20S WCI  10
DE KALB*       PTSUNNY   19  16  85 W8        30.18R WCI   9
PERU*          PTSUNNY   23  19  85 W8        30.22R WCI  14
$$

ILZ005-006-012>014-019>023-281600-
NORTHEAST ILLINOIS

CITY           SKY/WX    TMP DP  RH WIND       PRES   REMARKS
CHICAGO-OHARE  PTSUNNY   23  17  78 W6        30.17R WCI  16
CHICAGO-MIDWAY CLOUDY    26  20  77 W8        30.19R WCI  18
AURORA         PTSUNNY   23  18  81 W8        30.19R WCI  14
LANSING*       CLOUDY    26  21  82 W8        30.20R WCI  18
JOLIET*        CLOUDY    23  19  85 W5        30.22R WCI  17
WAUKEGAN       MOSUNNY   23  17  78 SW5       30.16R WCI  17
DUPAGE AIRPORT PTSUNNY   23  17  78 W7        30.18R WCI  15
KANKAKEE*      CLOUDY    26  22  84 W8        30.21R WCI  17
WHEELING       PTSUNNY   23  16  74 W5        30.19R WCI  17
MORRIS*        CLOUDY    23  20  89 W7        30.21R WCI  14
ROMEOVILLE*    CLOUDY    24  21  89 W7        30.20R WCI  16
NORTHERLY ISL    N/A     26  20  77 W2          N/A
$$

LMZ740>746-281600-
SOUTHERN LAKE MICHIGAN

STATION/POSITION SKY/WX   TEMP    WIND        PRES    VSBY  WAVE
                          AIR SEA DIR/SP/G                  HT/PER
                          (F)     (DEG/KT/KT) (MB)    (MI)  (FT/S)
WAUKEGAN HARBOR            23     250/  6/ 10   N/A
HARRISON CRIB              25     260/ 10/ 13   N/A
BURNHAM HARBOR             26     240/  5/ 10   N/A
CALUMET HARBOR             26     240/  3/  7 1020.9R
MICHIGAN CITY              29     250/ 10/ 12   N/A
$$

ILZ025>027-034>036-040-047-049-050-058-095>099-281600-
WEST-CENTRAL ILLINOIS

CITY           SKY/WX    TMP DP  RH WIND       PRES   REMARKS
QUINCY         PTSUNNY   27  22  81 W6        30.24R WCI  20
GALESBURG*     MOSUNNY   22  19  88 W3        30.22R
MACOMB*        PTSUNNY   26  22  87 W3        30.26R
JACKSONVILLE*  CLOUDY    30  23  73 CALM      30.25R
PITTSFIELD*    CLOUDY    29  23  79 CALM      30.26R
$$

ILZ028>032-037-038-041>044-048-051>054-059>061-281600-
CENTRAL ILLINOIS

CITY           SKY/WX    TMP DP  RH WIND       PRES   REMARKS
PONTIAC        CLOUDY    24  19  83 W7        30.23R WCI  15
BLOOMINGTON    CLOUDY    24  20  85 W8        30.23R WCI  15
DECATUR        CLOUDY    28  21  75 NW9       30.23R WCI  19
PEORIA         PTSUNNY   24  18  77 CALM      30.23S
LACON*         PTSUNNY   23  18  83 SW5       30.23R WCI  16
LINCOLN*       CLOUDY    28  22  80 NW3       30.26R
SPRINGFIELD    CLOUDY    30  22  72 W5        30.25R WCI  25
TAYLORVILLE    CLOUDY    28  23  80 N7        30.24S WCI  21
$$

ILZ033-039-045-046-055>057-062-063-281600-
EAST-CENTRAL ILLINOIS

CITY           SKY/WX    TMP DP  RH WIND       PRES   REMARKS
CHAMPAIGN      CLOUDY    27  20  75 NW10      30.22R WCI  17
DANVILLE*      CLOUDY    26  22  85 W6        30.18S WCI  20
RANTOUL*       CLOUDY    27  20  75 NW10      30.21S WCI  17
MATTOON        CLOUDY    28  23  81 N10       30.22R WCI  19
PARIS*         CLOUDY    29  27  90 NW5       30.22S WCI  24
$$

ILZ079-100>102-281600-
SOUTHWEST ILLINOIS

CITY           SKY/WX    TMP DP  RH WIND       PRES   REMARKS
ALTON          CLOUDY    32  25  74 NW7       30.26R WCI  26
BELLEVILLE     CLOUDY    32  27  83 NW7       30.24S WCI  25
CAHOKIA*       CLOUDY    32  25  75 NW8       30.25S WCI  25
SPARTA*        CLOUDY    32  26  80 NW6       30.25S WCI  26
$$

ILZ064>066-069>071-074>076-080>082-084>086-088>090-092>094-281600-
SOUTH-CENTRAL ILLINOIS

CITY           SKY/WX    TMP DP  RH WIND       PRES   REMARKS
CARBONDALE     CLOUDY    33  26  75 NW10      30.24S WCI  25
CAIRO*         CLOUDY    37  31  79 N8        30.23S WCI  30
EFFINGHAM*     CLOUDY    31  22  70 N8        30.25S WCI  24
MARION         CLOUDY    34  28  80 NW9       30.24S WCI  26
MT. VERNON     CLOUDY    30  23  74 CALM      30.24S
CENTRALIA*     CLOUDY    32  27  81 N9        30.23F WCI  24
SALEM*         CLOUDY    32  28  83 N6        30.24S WCI  27
METROPOLIS*    CLOUDY    34  33  96 N6        30.23R WCI  29
$$

ILZ067-068-072-073-078-083-087-091-281600-
SOUTHEAST ILLINOIS

CITY           SKY/WX    TMP DP  RH WIND       PRES   REMARKS
LAWRENCEVILLE  CLOUDY    33  28  81 N9        30.23R WCI  25
FLORA*         CLOUDY    31  27  83 N5        30.24S WCI  27
FAIRFIELD*     CLOUDY    33  28  83 N3        30.22F
HARRISBURG*    CLOUDY    33  30  88 N7        30.24F WCI  27
ROBINSON*      CLOUDY    32  28  87 N7        30.24R WCI  25
CARMI*         CLOUDY    35  32  90 NW9       30.22F WCI  27
$$

ABBREVIATIONS USED IN REMARKS
   TC - TEMPERATURE IN CELSIUS
  WCI - WIND CHILL INDEX
   HX - HEAT INDEX
  VSB - VISIBILITY
$$



USA.gov is the U.S. government's official web portal to all federal, state and local government web resources and services.